QPF
0.01 0.01 0.01 0.01 0.01 0.01 0.00 0.00 0.00 0.00 0.00 0.00 0.00 0.01 0.01 0.01 0.01 0.00 0.00 0.01 0.02 0.02 0.02 0.03 0.03 0.03 0.02 0.02 0.02 0.02 0.03 0.03 0.02 0.02 0.03 0.05 0.04 0.02 0.01 0.01 0.04 0.06 0.09 0.12
0.01 0.01 0.00 0.00 0.00 0.01 0.01 0.01 0.00 0.00 0.00 0.00 0.01 0.01 0.02 0.01 0.02 0.01 0.00 0.01 0.02 0.02 0.03 0.04 0.05 0.04 0.03 0.02 0.02 0.01 0.01 0.02 0.01 0.01 0.02 0.04 0.05 0.03 0.01 0.01 0.01 0.03 0.07 0.10
0.02 0.01 0.00 0.00 0.00 0.00 0.01 0.01 0.00 0.00 0.00 0.00 0.01 0.01 0.02 0.03 0.02 0.02 0.01 0.01 0.02 0.02 0.03 0.05 0.07 0.06 0.05 0.03 0.02 0.01 0.01 0.01 0.01 0.01 0.01 0.03 0.04 0.04 0.03 0.01 0.01 0.02 0.06 0.10
0.02 0.01 0.00 0.00 0.00 0.00 0.00 0.00 0.00 0.00 0.01 0.01 0.01 0.01 0.02 0.04 0.03 0.03 0.02 0.03 0.02 0.02 0.02 0.04 0.07 0.07 0.05 0.04 0.02 0.02 0.02 0.02 0.01 0.01 0.01 0.02 0.03 0.03 0.03 0.03 0.01 0.02 0.04 0.09
0.02 0.02 0.01 0.01 0.00 0.00 0.00 0.00 0.01 0.01 0.01 0.01 0.00 0.01 0.03 0.05 0.05 0.04 0.03 0.03 0.03 0.03 0.02 0.03 0.06 0.08 0.06 0.06 0.04 0.02 0.02 0.01 0.01 0.01 0.00 0.01 0.03 0.03 0.02 0.02 0.02 0.02 0.03 0.08
0.01 0.01 0.02 0.02 0.00 0.00 0.00 0.00 0.01 0.02 0.02 0.01 0.00 0.02 0.03 0.06 0.06 0.05 0.04 0.04 0.04 0.03 0.02 0.03 0.05 0.08 0.07 0.06 0.05 0.03 0.02 0.01 0.01 0.01 0.00 0.01 0.02 0.03 0.02 0.02 0.02 0.03 0.04 0.06
0.00 0.01 0.01 0.02 0.01 0.00 0.01 0.01 0.01 0.03 0.04 0.03 0.01 0.02 0.03 0.05 0.06 0.05 0.04 0.04 0.04 0.03 0.02 0.03 0.04 0.08 0.08 0.08 0.06 0.03 0.02 0.02 0.01 0.01 0.00 0.00 0.02 0.03 0.03 0.03 0.02 0.02 0.04 0.06
0.00 0.00 0.00 0.01 0.01 0.01 0.01 0.01 0.01 0.01 0.02 0.02 0.01 0.01 0.02 0.03 0.04 0.04 0.03 0.03 0.03 0.03 0.02 0.03 0.05 0.08 0.09 0.09 0.07 0.05 0.02 0.02 0.01 0.01 0.01 0.00 0.01 0.02 0.03 0.03 0.03 0.03 0.03 0.05
0.00 0.00 0.00 0.00 0.01 0.01 0.01 0.01 0.01 0.01 0.00 0.01 0.02 0.02 0.02 0.02 0.02 0.03 0.03 0.03 0.02 0.03 0.03 0.04 0.05 0.08 0.11 0.11 0.08 0.06 0.03 0.01 0.01 0.01 0.01 0.01 0.01 0.01 0.03 0.03 0.04 0.04 0.03 0.05
0.01 0.00 0.00 0.00 0.01 0.01 0.01 0.01 0.01 0.01 0.01 0.01 0.01 0.02 0.01 0.01 0.02 0.02 0.02 0.02 0.02 0.03 0.04 0.05 0.05 0.10 0.13 0.13 0.12 0.09 0.05 0.03 0.02 0.02 0.02 0.01 0.01 0.01 0.02 0.04 0.05 0.04 0.05 0.06
0.01 0.01 0.00 0.00 0.01 0.02 0.01 0.01 0.01 0.00 0.01 0.01 0.01 0.01 0.01 0.01 0.02 0.02 0.02 0.02 0.02 0.03 0.05 0.06 0.07 0.11 0.15 0.14 0.14 0.13 0.08 0.05 0.03 0.03 0.02 0.02 0.02 0.02 0.02 0.04 0.05 0.06 0.07 0.07
0.01 0.01 0.01 0.01 0.00 0.01 0.01 0.01 0.01 0.01 0.00 0.00 0.01 0.01 0.01 0.01 0.01 0.02 0.02 0.01 0.02 0.02 0.04 0.05 0.07 0.10 0.15 0.14 0.13 0.15 0.14 0.09 0.06 0.05 0.03 0.03 0.03 0.03 0.03 0.03 0.04 0.06 0.08 0.10
0.02 0.03 0.03 0.01 0.01 0.01 0.01 0.01 0.00 0.01 0.01 0.01 0.01 0.01 0.00 0.00 0.01 0.01 0.02 0.02 0.02 0.02 0.02 0.03 0.05 0.08 0.12 0.14 0.13 0.14 0.16 0.15 0.10 0.07 0.05 0.04 0.04 0.04 0.04 0.05 0.05 0.06 0.06 0.09
0.02 0.02 0.03 0.02 0.01 0.01 0.01 0.01 0.01 0.01 0.02 0.01 0.01 0.00 0.00 0.00 0.00 0.01 0.01 0.02 0.02 0.02 0.02 0.02 0.03 0.05 0.08 0.12 0.13 0.14 0.15 0.15 0.13 0.09 0.06 0.04 0.04 0.04 0.04 0.06 0.08 0.07 0.06 0.07
0.02 0.01 0.01 0.01 0.01 0.01 0.01 0.01 0.01 0.01 0.01 0.01 0.00 0.00 0.00 0.00 0.00 0.01 0.01 0.02 0.03 0.02 0.02 0.03 0.03 0.04 0.05 0.08 0.10 0.11 0.12 0.11 0.10 0.09 0.07 0.05 0.04 0.04 0.04 0.06 0.09 0.08 0.08 0.07
0.01 0.01 0.01 0.01 0.01 0.00 0.01 0.01 0.01 0.01 0.01 0.01 0.01 0.01 0.01 0.01 0.01 0.01 0.01 0.02 0.03 0.04 0.03 0.04 0.03 0.03 0.04 0.06 0.08 0.08 0.10 0.10 0.09 0.08 0.09 0.07 0.05 0.04 0.05 0.07 0.08 0.07 0.07 0.07
0.02 0.02 0.03 0.02 0.01 0.01 0.01 0.01 0.01 0.01 0.01 0.01 0.01 0.01 0.01 0.01 0.01 0.01 0.01 0.02 0.03 0.05 0.04 0.04 0.04 0.04 0.03 0.04 0.06 0.07 0.08 0.09 0.10 0.09 0.08 0.08 0.07 0.06 0.07 0.08 0.06 0.05 0.05 0.05
0.01 0.02 0.04 0.03 0.02 0.02 0.01 0.01 0.01 0.01 0.01 0.01 0.02 0.01 0.01 0.01 0.01 0.01 0.01 0.02 0.02 0.05 0.06 0.04 0.04 0.05 0.04 0.03 0.04 0.05 0.06 0.07 0.09 0.09 0.08 0.08 0.07 0.07 0.08 0.08 0.06 0.05 0.05 0.05
0.01 0.02 0.04 0.04 0.03 0.01 0.01 0.01 0.01 0.01 0.02 0.02 0.02 0.01 0.01 0.01 0.01 0.01 0.01 0.01 0.02 0.03 0.05 0.05 0.05 0.05 0.05 0.04 0.04 0.03 0.04 0.04 0.05 0.07 0.09 0.08 0.08 0.07 0.07 0.06 0.06 0.05 0.05 0.05
0.01 0.01 0.03 0.05 0.04 0.01 0.01 0.01 0.01 0.01 0.02 0.02 0.01 0.01 0.01 0.01 0.02 0.02 0.02 0.01 0.01 0.02 0.03 0.04 0.05 0.06 0.05 0.05 0.05 0.04 0.03 0.03 0.04 0.06 0.07 0.07 0.07 0.07 0.06 0.05 0.05 0.05 0.06 0.06
0.01 0.01 0.03 0.03 0.04 0.02 0.01 0.01 0.01 0.01 0.02 0.01 0.01 0.01 0.01 0.02 0.02 0.02 0.02 0.01 0.01 0.01 0.02 0.02 0.04 0.05 0.05 0.05 0.06 0.05 0.04 0.04 0.04 0.04 0.04 0.04 0.05 0.05 0.05 0.05 0.05 0.05 0.05 0.05
0.02 0.02 0.02 0.03 0.04 0.03 0.01 0.01 0.01 0.02 0.01 0.01 0.01 0.01 0.02 0.02 0.01 0.01 0.01 0.01 0.01 0.01 0.01 0.02 0.02 0.03 0.04 0.04 0.05 0.06 0.06 0.05 0.04 0.03 0.03 0.02 0.02 0.03 0.04 0.04 0.04 0.05 0.05 0.05
0.02 0.03 0.03 0.03 0.03 0.02 0.01 0.01 0.01 0.01 0.01 0.02 0.02 0.02 0.01 0.01 0.01 0.01 0.01 0.01 0.01 0.01 0.01 0.01 0.02 0.02 0.02 0.03 0.04 0.05 0.06 0.05 0.04 0.03 0.03 0.03 0.03 0.03 0.03 0.03 0.03 0.04 0.04 0.05
0.02 0.02 0.03 0.03 0.03 0.03 0.02 0.02 0.02 0.02 0.03 0.03 0.02 0.02 0.01 0.01 0.01 0.01 0.01 0.01 0.01 0.01 0.01 0.01 0.01 0.01 0.02 0.02 0.02 0.02 0.03 0.04 0.05 0.05 0.04 0.03 0.03 0.03 0.03 0.03 0.03 0.03 0.04 0.04
0.03 0.03 0.03 0.03 0.02 0.03 0.03 0.03 0.03 0.03 0.03 0.02 0.01 0.01 0.01 0.01 0.01 0.01 0.01 0.01 0.01 0.01 0.01 0.01 0.01 0.01 0.01 0.01 0.01 0.01 0.01 0.02 0.03 0.03 0.04 0.04 0.03 0.03 0.03 0.02 0.03 0.03 0.04 0.04
0.03 0.03 0.04 0.03 0.02 0.03 0.03 0.03 0.03 0.03 0.03 0.02 0.02 0.02 0.02 0.02 0.02 0.01 0.01 0.01 0.01 0.00 0.00 0.00 0.00 0.01 0.01 0.01 0.01 0.01 0.01 0.01 0.02 0.02 0.02 0.03 0.03 0.03 0.03 0.02 0.02 0.02 0.03 0.03
MSLP
1015.81 1015.68 1015.58 1015.56 1015.64 1015.83 1016.11 1016.46 1016.81 1017.10 1017.28 1017.31 1017.17 1016.90 1016.56 1016.21 1015.97 1015.89 1016.03 1016.42 1017.04 1017.84 1018.75 1019.71 1020.63 1021.46 1022.19 1022.80 1023.30 1023.71 1024.08 1024.40 1024.70 1024.97 1025.19 1025.35 1025.44 1025.43 1025.34 1025.17 1024.94 1024.70 1024.45 1024.23
1016.01 1015.91 1015.85 1015.83 1015.91 1016.08 1016.34 1016.65 1016.95 1017.17 1017.25 1017.16 1016.89 1016.47 1015.96 1015.47 1015.09 1014.91 1014.99 1015.36 1016.00 1016.86 1017.87 1018.93 1019.97 1020.92 1021.74 1022.42 1022.99 1023.46 1023.86 1024.22 1024.55 1024.86 1025.11 1025.30 1025.39 1025.39 1025.29 1025.10 1024.85 1024.56 1024.28 1024.03
1016.44 1016.41 1016.39 1016.42 1016.50 1016.66 1016.87 1017.12 1017.32 1017.42 1017.36 1017.11 1016.67 1016.08 1015.42 1014.79 1014.30 1014.04 1014.09 1014.46 1015.14 1016.07 1017.17 1018.33 1019.47 1020.50 1021.40 1022.15 1022.76 1023.26 1023.70 1024.08 1024.44 1024.75 1025.02 1025.22 1025.32 1025.32 1025.20 1024.99 1024.71 1024.40 1024.09 1023.81
1017.20 1017.26 1017.30 1017.37 1017.46 1017.60 1017.76 1017.90 1017.98 1017.92 1017.69 1017.25 1016.62 1015.86 1015.05 1014.31 1013.74 1013.44 1013.49 1013.89 1014.62 1015.62 1016.79 1018.02 1019.22 1020.30 1021.24 1022.02 1022.65 1023.16 1023.60 1023.99 1024.34 1024.66 1024.92 1025.11 1025.20 1025.18 1025.05 1024.83 1024.53 1024.20 1023.88 1023.58
1018.31 1018.45 1018.56 1018.66 1018.76 1018.86 1018.95 1018.98 1018.90 1018.66 1018.23 1017.60 1016.79 1015.88 1014.95 1014.12 1013.52 1013.22 1013.29 1013.73 1014.52 1015.56 1016.78 1018.04 1019.25 1020.34 1021.27 1022.03 1022.65 1023.14 1023.56 1023.93 1024.26 1024.55 1024.80 1024.96 1025.03 1024.99 1024.84 1024.60 1024.30 1023.96 1023.63 1023.33
1019.72 1019.91 1020.06 1020.18 1020.27 1020.33 1020.33 1020.23 1019.99 1019.57 1018.95 1018.14 1017.17 1016.14 1015.13 1014.27 1013.67 1013.41 1013.52 1014.02 1014.84 1015.91 1017.13 1018.37 1019.55 1020.59 1021.47 1022.18 1022.74 1023.19 1023.56 1023.89 1024.19 1024.44 1024.65 1024.78 1024.81 1024.74 1024.57 1024.31 1024.00 1023.67 1023.34 1023.03
1021.30 1021.50 1021.66 1021.77 1021.84 1021.83 1021.74 1021.51 1021.11 1020.52 1019.74 1018.78 1017.70 1016.60 1015.57 1014.73 1014.17 1013.97 1014.14 1014.69 1015.53 1016.59 1017.77 1018.94 1020.04 1020.99 1021.78 1022.40 1022.89 1023.27 1023.60 1023.88 1024.12 1024.33 1024.49 1024.57 1024.55 1024.44 1024.24 1023.96 1023.64 1023.30 1022.98 1022.67
1022.89 1023.06 1023.19 1023.26 1023.28 1023.20 1023.01 1022.66 1022.12 1021.40 1020.49 1019.43 1018.30 1017.18 1016.18 1015.40 1014.92 1014.80 1015.04 1015.62 1016.46 1017.48 1018.57 1019.64 1020.61 1021.44 1022.11 1022.64 1023.04 1023.37 1023.63 1023.87 1024.07 1024.23 1024.33 1024.35 1024.27 1024.11 1023.86 1023.55 1023.21 1022.86 1022.52 1022.21
1024.33 1024.43 1024.50 1024.51 1024.46 1024.30 1024.01 1023.56 1022.91 1022.09 1021.10 1020.01 1018.87 1017.79 1016.87 1016.19 1015.81 1015.78 1016.08 1016.67 1017.48 1018.42 1019.40 1020.33 1021.15 1021.85 1022.40 1022.82 1023.16 1023.43 1023.66 1023.86 1024.02 1024.13 1024.17 1024.12 1023.98 1023.74 1023.43 1023.06 1022.69 1022.31 1021.96 1021.63
1025.50 1025.52 1025.51 1025.45 1025.32 1025.08 1024.70 1024.16 1023.44 1022.55 1021.53 1020.44 1019.36 1018.36 1017.54 1016.98 1016.73 1016.78 1017.12 1017.71 1018.46 1019.29 1020.13 1020.90 1021.58 1022.13 1022.57 1022.92 1023.21 1023.45 1023.66 1023.84 1023.97 1024.04 1024.02 1023.89 1023.66 1023.34 1022.94 1022.51 1022.07 1021.65 1021.27 1020.92
1026.37 1026.31 1026.22 1026.09 1025.88 1025.56 1025.10 1024.49 1023.71 1022.80 1021.78 1020.74 1019.73 1018.84 1018.15 1017.72 1017.57 1017.69 1018.06 1018.61 1019.27 1019.98 1020.67 1021.29 1021.82 1022.25 1022.61 1022.90 1023.16 1023.40 1023.62 1023.79 1023.91 1023.93 1023.85 1023.64 1023.31 1022.88 1022.39 1021.87 1021.36 1020.89 1020.47 1020.09
1026.97 1026.86 1026.71 1026.52 1026.24 1025.86 1025.33 1024.65 1023.84 1022.91 1021.92 1020.93 1020.02 1019.25 1018.68 1018.37 1018.30 1018.46 1018.82 1019.32 1019.88 1020.45 1020.99 1021.46 1021.87 1022.21 1022.51 1022.78 1023.05 1023.30 1023.53 1023.72 1023.82 1023.80 1023.64 1023.35 1022.91 1022.38 1021.78 1021.16 1020.58 1020.04 1019.58 1019.17
1027.39 1027.26 1027.09 1026.86 1026.53 1026.08 1025.50 1024.77 1023.92 1022.98 1022.02 1021.09 1020.27 1019.61 1019.15 1018.92 1018.91 1019.09 1019.42 1019.83 1020.28 1020.72 1021.11 1021.46 1021.76 1022.03 1022.30 1022.58 1022.86 1023.15 1023.41 1023.59 1023.67 1023.61 1023.38 1022.99 1022.46 1021.81 1021.11 1020.41 1019.74 1019.14 1018.63 1018.19
1027.73 1027.62 1027.46 1027.21 1026.84 1026.35 1025.70 1024.93 1024.05 1023.11 1022.17 1021.30 1020.54 1019.97 1019.58 1019.42 1019.43 1019.60 1019.87 1020.18 1020.51 1020.82 1021.09 1021.33 1021.55 1021.78 1022.03 1022.32 1022.64 1022.95 1023.23 1023.42 1023.47 1023.35 1023.06 1022.58 1021.94 1021.20 1020.41 1019.62 1018.89 1018.23 1017.67 1017.20
1028.05 1028.00 1027.87 1027.62 1027.23 1026.69 1026.00 1025.18 1024.27 1023.33 1022.41 1021.58 1020.88 1020.36 1020.03 1019.89 1019.90 1020.02 1020.21 1020.42 1020.63 1020.81 1020.97 1021.12 1021.29 1021.49 1021.74 1022.05 1022.39 1022.72 1023.00 1023.17 1023.19 1023.02 1022.64 1022.08 1021.37 1020.55 1019.69 1018.84 1018.05 1017.35 1016.74 1016.21
1028.38 1028.39 1028.30 1028.06 1027.66 1027.09 1026.36 1025.51 1024.58 1023.64 1022.74 1021.94 1021.29 1020.80 1020.50 1020.35 1020.33 1020.39 1020.49 1020.60 1020.69 1020.75 1020.82 1020.89 1021.01 1021.20 1021.45 1021.77 1022.12 1022.45 1022.72 1022.86 1022.83 1022.60 1022.16 1021.53 1020.76 1019.88 1018.97 1018.09 1017.26 1016.51 1015.85 1015.26
1028.68 1028.75 1028.69 1028.46 1028.05 1027.46 1026.71 1025.85 1024.92 1023.98 1023.11 1022.35 1021.73 1021.27 1020.97 1020.81 1020.74 1020.73 1020.73 1020.73 1020.71 1020.67 1020.66 1020.67 1020.76 1020.92 1021.17 1021.49 1021.83 1022.15 1022.38 1022.48 1022.39 1022.10 1021.61 1020.94 1020.13 1019.23 1018.30 1017.39 1016.53 1015.74 1015.01 1014.33
1028.90 1029.00 1028.94 1028.71 1028.29 1027.70 1026.95 1026.09 1025.18 1024.28 1023.45 1022.74 1022.16 1021.72 1021.42 1021.23 1021.10 1021.01 1020.92 1020.81 1020.69 1020.58 1020.49 1020.46 1020.51 1020.65 1020.89 1021.19 1021.51 1021.80 1021.99 1022.03 1021.89 1021.55 1021.02 1020.33 1019.50 1018.60 1017.68 1016.76 1015.88 1015.04 1014.23 1013.44
1028.97 1029.05 1028.98 1028.73 1028.30 1027.71 1026.98 1026.15 1025.29 1024.46 1023.70 1023.04 1022.51 1022.10 1021.80 1021.57 1021.39 1021.22 1021.03 1020.84 1020.63 1020.44 1020.29 1020.22 1020.24 1020.37 1020.58 1020.86 1021.14 1021.39 1021.53 1021.52 1021.34 1020.97 1020.42 1019.72 1018.91 1018.03 1017.12 1016.22 1015.32 1014.42 1013.52 1012.59
1028.85 1028.88 1028.76 1028.48 1028.04 1027.46 1026.76 1026.00 1025.22 1024.47 1023.79 1023.21 1022.73 1022.35 1022.05 1021.79 1021.55 1021.30 1021.04 1020.76 1020.48 1020.22 1020.03 1019.93 1019.93 1020.04 1020.23 1020.47 1020.72 1020.92 1021.02 1020.96 1020.75 1020.36 1019.81 1019.13 1018.36 1017.52 1016.64 1015.75 1014.83 1013.88 1012.88 1011.80
1028.57 1028.51 1028.32 1028.00 1027.55 1026.98 1026.34 1025.65 1024.96 1024.31 1023.72 1023.22 1022.80 1022.44 1022.13 1021.84 1021.55 1021.23 1020.90 1020.54 1020.21 1019.91 1019.68 1019.56 1019.54 1019.63 1019.81 1020.02 1020.24 1020.40 1020.45 1020.37 1020.14 1019.75 1019.22 1018.58 1017.85 1017.06 1016.23 1015.35 1014.42 1013.42 1012.33 1011.13
1028.18 1028.00 1027.73 1027.37 1026.90 1026.37 1025.78 1025.17 1024.58 1024.02 1023.52 1023.08 1022.70 1022.36 1022.04 1021.71 1021.36 1020.98 1020.58 1020.18 1019.79 1019.46 1019.22 1019.09 1019.07 1019.16 1019.32 1019.51 1019.70 1019.83 1019.86 1019.76 1019.53 1019.15 1018.66 1018.07 1017.40 1016.67 1015.88 1015.03 1014.10 1013.06 1011.89 1010.59
1027.76 1027.47 1027.13 1026.71 1026.24 1025.73 1025.19 1024.65 1024.14 1023.65 1023.22 1022.82 1022.46 1022.11 1021.76 1021.38 1020.98 1020.54 1020.09 1019.65 1019.24 1018.90 1018.66 1018.54 1018.53 1018.62 1018.77 1018.96 1019.13 1019.24 1019.26 1019.16 1018.93 1018.59 1018.14 1017.60 1017.00 1016.33 1015.59 1014.77 1013.85 1012.80 1011.59 1010.22
1027.40 1027.02 1026.61 1026.16 1025.68 1025.18 1024.68 1024.19 1023.72 1023.28 1022.87 1022.48 1022.10 1021.72 1021.32 1020.88 1020.42 1019.93 1019.44 1018.98 1018.57 1018.25 1018.03 1017.93 1017.94 1018.05 1018.21 1018.40 1018.57 1018.67 1018.68 1018.58 1018.38 1018.06 1017.66 1017.18 1016.64 1016.03 1015.35 1014.58 1013.68 1012.64 1011.43 1010.05
1027.17 1026.73 1026.27 1025.79 1025.30 1024.81 1024.32 1023.85 1023.39 1022.94 1022.51 1022.09 1021.66 1021.21 1020.74 1020.24 1019.73 1019.20 1018.69 1018.23 1017.84 1017.54 1017.37 1017.31 1017.36 1017.50 1017.68 1017.87 1018.04 1018.14 1018.16 1018.07 1017.88 1017.60 1017.24 1016.82 1016.34 1015.79 1015.17 1014.44 1013.59 1012.59 1011.42 1010.07
1027.11 1026.63 1026.15 1025.66 1025.16 1024.66 1024.15 1023.66 1023.16 1022.67 1022.18 1021.68 1021.17 1020.64 1020.09 1019.52 1018.95 1018.40 1017.89 1017.45 1017.10 1016.86 1016.74 1016.74 1016.84 1017.02 1017.23 1017.44 1017.61 1017.71 1017.73 1017.65 1017.48 1017.23 1016.91 1016.53 1016.10 1015.61 1015.04 1014.38 1013.58 1012.64 1011.54 1010.26
Thickness
5553 5543 5536 5535 5535 5536 5532 5526 5523 5527 5527 5520 5516 5519 5524 5521 5517 5513 5510 5507 5505 5504 5501 5497 5495 5493 5492 5491 5489 5489 5488 5488 5489 5490 5492 5495 5499 5503 5507 5511 5516 5521 5525 5529
5538 5532 5535 5534 5531 5528 5523 5518 5515 5517 5516 5513 5506 5508 5514 5515 5512 5510 5505 5500 5497 5493 5489 5487 5484 5482 5481 5480 5478 5477 5477 5478 5479 5481 5482 5485 5488 5491 5495 5499 5504 5509 5513 5518
5535 5533 5532 5528 5522 5518 5515 5509 5508 5506 5503 5502 5496 5501 5507 5508 5503 5500 5496 5491 5487 5485 5481 5477 5474 5471 5470 5469 5467 5468 5467 5468 5469 5470 5472 5474 5476 5480 5484 5488 5492 5497 5502 5506
5521 5523 5523 5519 5512 5508 5505 5504 5501 5496 5485 5480 5482 5478 5495 5492 5491 5489 5484 5480 5476 5474 5471 5467 5465 5463 5461 5458 5457 5457 5457 5458 5459 5460 5461 5464 5466 5470 5473 5477 5481 5486 5490 5495
5515 5513 5512 5509 5506 5499 5495 5493 5488 5484 5475 5466 5465 5462 5479 5478 5480 5480 5474 5470 5467 5463 5461 5458 5456 5454 5451 5448 5447 5447 5447 5449 5449 5450 5451 5453 5456 5459 5463 5466 5470 5474 5479 5484
5503 5502 5500 5498 5494 5491 5485 5478 5472 5460 5454 5458 5461 5452 5464 5465 5471 5470 5466 5461 5458 5455 5451 5449 5447 5444 5441 5438 5437 5437 5438 5440 5440 5441 5442 5444 5446 5449 5452 5456 5459 5464 5468 5473
5491 5491 5487 5484 5482 5478 5471 5462 5453 5448 5437 5452 5455 5450 5456 5463 5461 5459 5456 5452 5448 5444 5441 5438 5436 5434 5432 5430 5430 5430 5431 5431 5431 5432 5432 5434 5436 5440 5443 5447 5450 5454 5458 5462
5474 5476 5476 5471 5470 5464 5459 5455 5447 5442 5437 5441 5444 5444 5454 5451 5448 5447 5445 5443 5440 5435 5431 5430 5428 5425 5423 5423 5423 5423 5423 5423 5424 5424 5424 5425 5428 5431 5435 5438 5441 5445 5449 5453
5459 5465 5464 5461 5457 5456 5450 5440 5438 5425 5417 5415 5428 5432 5445 5444 5441 5438 5435 5433 5428 5425 5422 5420 5418 5416 5415 5414 5414 5415 5414 5415 5416 5416 5417 5418 5420 5423 5427 5430 5432 5436 5439 5442
5449 5444 5450 5447 5446 5442 5439 5431 5417 5411 5412 5411 5421 5420 5428 5432 5428 5425 5422 5418 5417 5416 5412 5410 5408 5407 5407 5407 5406 5406 5406 5407 5408 5408 5409 5412 5414 5416 5418 5421 5423 5427 5429 5432
5437 5430 5432 5432 5429 5430 5424 5420 5413 5401 5398 5397 5401 5420 5421 5417 5413 5410 5409 5407 5405 5405 5402 5400 5399 5398 5398 5397 5397 5398 5398 5399 5400 5401 5403 5405 5407 5409 5411 5414 5416 5419 5421 5424
5424 5414 5410 5417 5417 5415 5413 5412 5402 5399 5392 5381 5380 5404 5414 5406 5402 5400 5399 5398 5396 5394 5391 5389 5388 5388 5388 5388 5388 5389 5390 5391 5393 5394 5396 5398 5400 5402 5404 5407 5409 5411 5413 5417
5413 5403 5402 5413 5409 5403 5401 5397 5392 5385 5379 5371 5374 5398 5403 5396 5392 5391 5389 5386 5385 5383 5381 5379 5378 5377 5377 5378 5379 5382 5383 5384 5385 5387 5389 5391 5393 5395 5397 5399 5402 5404 5406 5409
5406 5391 5394 5403 5405 5396 5390 5387 5381 5375 5371 5368 5375 5389 5391 5385 5380 5378 5376 5374 5372 5372 5370 5369 5368 5368 5368 5368 5370 5373 5375 5377 5378 5380 5382 5384 5386 5389 5391 5393 5395 5397 5399 5401
5391 5381 5376 5381 5386 5381 5378 5378 5373 5368 5369 5369 5377 5373 5378 5370 5366 5364 5363 5363 5363 5362 5361 5359 5358 5358 5358 5359 5360 5363 5365 5368 5370 5372 5374 5377 5379 5382 5384 5386 5389 5391 5392 5394
5375 5371 5368 5370 5376 5372 5373 5376 5371 5366 5362 5360 5363 5364 5365 5358 5354 5353 5351 5351 5351 5350 5349 5349 5349 5348 5348 5349 5351 5353 5355 5358 5360 5362 5365 5368 5371 5374 5376 5378 5381 5382 5384 5386
5363 5360 5359 5362 5362 5365 5366 5368 5363 5358 5352 5351 5353 5356 5352 5347 5346 5342 5339 5338 5337 5337 5337 5337 5336 5336 5337 5338 5340 5342 5345 5348 5350 5353 5356 5359 5362 5366 5368 5370 5372 5373 5375 5377
5356 5352 5348 5348 5349 5355 5371 5360 5357 5352 5346 5342 5343 5342 5338 5335 5333 5330 5328 5326 5325 5324 5325 5325 5325 5326 5327 5329 5331 5333 5335 5338 5340 5343 5346 5349 5353 5356 5358 5360 5362 5364 5366 5368
5351 5347 5341 5338 5334 5344 5359 5352 5344 5341 5340 5335 5332 5331 5326 5323 5322 5322 5321 5317 5314 5313 5314 5315 5315 5316 5318 5320 5322 5324 5326 5328 5330 5333 5336 5339 5342 5346 5348 5351 5352 5354 5357 5359
5340 5335 5331 5327 5330 5334 5350 5341 5335 5334 5333 5330 5323 5320 5315 5314 5315 5316 5311 5307 5306 5305 5305 5306 5307 5308 5309 5310 5312 5314 5316 5318 5320 5322 5325 5329 5332 5335 5338 5341 5343 5344 5346 5348
5326 5322 5319 5318 5317 5328 5330 5324 5327 5326 5327 5320 5314 5311 5306 5303 5302 5301 5298 5296 5296 5296 5296 5297 5298 5299 5299 5300 5302 5303 5304 5306 5309 5312 5315 5319 5322 5325 5328 5330 5332 5333 5335 5336
5318 5314 5312 5311 5309 5321 5318 5313 5313 5313 5310 5305 5302 5299 5296 5293 5290 5289 5288 5287 5286 5287 5287 5287 5287 5288 5289 5289 5291 5293 5293 5296 5299 5302 5305 5308 5311 5314 5317 5318 5320 5322 5323 5324
5308 5310 5309 5309 5314 5311 5304 5303 5301 5298 5295 5292 5290 5288 5285 5282 5280 5279 5278 5277 5277 5277 5277 5277 5276 5277 5278 5279 5281 5282 5284 5286 5289 5292 5295 5298 5301 5303 5305 5307 5309 5310 5311 5312
5302 5299 5299 5297 5303 5299 5294 5291 5288 5286 5284 5282 5280 5277 5274 5271 5269 5268 5268 5267 5267 5267 5266 5266 5266 5266 5267 5268 5270 5271 5274 5276 5280 5282 5285 5287 5290 5292 5293 5295 5297 5298 5299 5299
5294 5289 5288 5290 5291 5289 5290 5285 5280 5276 5274 5271 5269 5266 5264 5261 5259 5257 5256 5256 5256 5257 5256 5255 5254 5255 5256 5258 5260 5262 5264 5267 5270 5272 5274 5276 5278 5279 5281 5282 5283 5285 5285 5286
5280 5278 5279 5286 5284 5280 5281 5276 5271 5267 5264 5262 5259 5256 5254 5251 5249 5247 5246 5246 5246 5245 5245 5245 5245 5246 5246 5248 5250 5252 5255 5257 5259 5262 5264 5265 5267 5268 5269 5270 5272 5273 5274 5275